Dewpoint
74 73 72 72 72 71 68 66 57 61 59 53 53 55 55 62 63 61 60 62 61 64 67 67 66 64 63 62 61 63 63 57 57 51 50 64 70 70 71 72 73 73 74 74 75 76 76 77 78 77 77 77 77 77 77 77 77 77 77 77 77 76 77 77 77 77 77 77 77 77 77 77 77 76 76 76 75 75 75 75 75 75 75 75 76 76 76 76 76 75 74 75 75 74 75 75 75
72 72 72 72 71 68 64 66 58 55 57 54 54 57 58 63 62 60 60 61 63 65 67 68 68 68 68 66 65 64 63 66 67 66 67 69 70 71 72 73 73 73 74 74 75 76 76 77 77 77 77 76 77 77 76 76 77 76 76 77 77 76 77 76 77 77 77 77 77 77 77 77 77 76 76 76 75 75 75 75 75 75 75 76 76 76 76 76 75 75 75 75 75 75 75 75 75
72 72 72 72 70 68 66 65 55 54 52 49 51 56 61 59 60 61 62 63 65 66 67 67 67 67 66 66 63 62 58 68 68 68 68 70 69 71 73 73 73 74 74 74 75 76 76 77 77 77 77 76 76 76 76 76 76 77 76 77 76 76 77 77 77 76 77 77 78 77 77 77 77 76 76 75 75 74 74 75 75 75 75 75 76 75 75 75 75 75 75 75 75 75 75 75 75
73 73 71 69 65 68 62 61 56 54 51 49 51 57 60 60 60 61 64 65 66 67 66 66 65 68 66 62 63 66 64 66 68 67 67 69 68 72 73 73 74 74 74 75 75 76 76 77 77 77 77 76 77 76 75 77 76 76 77 77 77 77 77 77 77 77 77 77 78 78 77 77 77 77 76 75 75 74 74 75 75 75 75 75 75 75 75 75 75 75 75 75 75 75 75 75 74
73 74 73 69 65 61 61 59 58 57 52 51 52 57 61 60 62 62 63 65 66 66 66 65 65 67 68 66 66 63 62 68 68 68 68 70 72 73 73 74 74 74 74 75 75 76 76 77 77 77 77 76 76 76 76 76 76 77 77 77 77 77 77 77 76 76 77 77 77 77 77 77 76 77 76 76 75 74 74 75 76 75 75 75 76 76 75 75 76 75 75 76 75 75 75 75 76
73 73 74 71 64 67 63 56 55 54 56 56 55 56 61 62 62 63 63 66 66 66 66 66 65 64 65 66 68 66 68 65 68 67 68 71 72 73 74 74 74 74 74 75 76 76 76 77 77 76 76 76 76 76 77 76 76 76 76 77 77 76 76 76 76 76 77 77 77 77 77 77 76 76 76 76 75 74 74 75 76 76 75 76 75 75 76 76 76 76 76 75 75 76 75 76 75
71 70 70 69 67 66 58 55 53 53 56 60 58 61 63 63 63 63 62 63 64 65 67 65 67 66 64 67 68 71 70 69 68 67 70 72 72 73 74 74 74 74 74 75 76 76 76 78 77 76 76 76 76 77 76 76 75 75 76 77 77 76 77 76 75 76 77 77 77 77 77 76 76 76 76 76 75 75 75 75 76 76 75 76 76 76 76 76 76 76 76 76 76 76 76 76 75
75 66 67 62 60 61 57 56 55 56 57 62 63 62 63 63 64 62 62 62 61 63 64 67 66 65 64 69 63 69 72 73 72 71 72 72 73 73 74 74 74 74 75 75 76 76 77 78 76 76 76 76 76 76 76 76 75 76 77 77 76 76 76 76 76 76 76 76 77 77 77 76 76 76 76 76 75 75 75 75 76 76 76 76 76 76 76 76 76 76 76 76 76 76 76 76 76
72 68 69 62 56 57 56 54 54 59 60 63 63 64 64 64 65 62 62 63 63 64 64 66 65 62 63 65 66 69 71 72 72 73 72 72 73 73 73 73 74 74 75 75 76 76 77 77 76 76 76 76 76 76 76 75 76 76 75 77 76 75 76 76 76 76 76 77 77 77 77 77 77 76 76 76 75 75 74 76 76 76 76 76 76 76 76 76 76 76 76 77 76 77 77 77 77
68 66 61 59 57 53 52 52 53 55 59 62 62 64 64 65 64 65 63 62 63 64 65 67 67 63 65 64 66 68 71 72 72 71 72 72 72 72 73 73 74 74 75 75 76 76 77 78 76 77 77 77 77 76 77 75 76 77 76 76 77 76 76 76 76 76 77 77 77 77 76 76 76 76 76 76 75 75 75 76 76 75 76 76 76 76 76 76 76 77 77 77 77 77 77 77 77
63 66 65 57 55 53 52 53 54 57 58 62 64 65 66 65 64 64 64 62 64 63 65 66 64 64 64 64 65 70 72 71 71 70 71 71 72 72 72 73 74 74 74 75 76 77 77 77 77 77 77 77 77 77 77 76 77 77 77 76 77 76 76 76 77 77 77 77 77 77 76 76 76 76 76 75 75 75 76 76 76 76 76 76 76 76 77 77 76 77 77 77 78 78 78 78 78
61 62 60 55 55 54 55 55 56 56 59 62 62 65 66 64 65 63 63 62 64 64 64 66 63 65 63 64 66 71 72 71 71 70 71 71 71 71 72 73 74 74 75 75 76 77 77 77 77 77 78 77 77 77 78 76 78 78 77 77 77 77 77 77 77 77 77 77 77 76 76 76 76 76 76 76 75 76 76 76 76 76 76 76 77 77 77 77 77 77 77 78 78 78 78 78 78
62 62 58 52 52 57 56 56 56 58 56 58 62 65 66 64 63 64 64 64 64 64 64 67 68 66 62 64 68 71 70 71 71 70 70 70 70 71 72 73 73 74 75 76 76 76 77 77 77 77 77 78 77 78 78 77 78 78 77 78 78 78 78 77 77 77 77 77 76 77 77 76 76 76 76 76 76 76 76 76 76 76 77 77 77 77 77 77 77 78 78 78 78 78 78 78 78
63 62 59 53 56 56 56 54 55 55 54 58 63 66 66 63 63 66 65 63 64 64 68 69 69 67 64 66 67 68 70 71 70 70 69 70 70 71 72 72 73 74 75 75 75 76 77 77 77 77 77 77 77 77 78 78 78 78 78 78 78 77 77 77 77 76 76 76 76 76 76 76 75 76 76 76 76 76 76 76 77 77 77 77 77 77 77 78 78 78 78 78 78 79 79 79 79
63 66 60 55 54 53 54 55 55 55 55 60 63 65 65 66 66 66 65 63 64 68 69 71 70 67 62 64 65 68 70 70 70 69 69 69 70 71 71 72 73 74 75 75 76 76 76 77 77 77 77 77 77 77 77 77 77 77 77 77 77 77 77 76 76 76 76 75 75 76 75 76 76 76 76 76 76 76 76 76 76 77 77 77 78 78 78 78 79 78 79 79 79 79 79 79 79
66 64 59 54 52 52 55 56 57 55 54 62 64 66 65 66 67 63 64 67 65 68 70 67 71 67 66 66 67 70 70 70 69 68 69 70 70 70 71 72 73 74 75 75 76 76 76 76 76 77 76 76 76 76 76 77 77 77 77 77 77 77 76 76 76 76 76 75 75 75 76 77 76 77 76 77 77 77 77 77 77 77 77 78 78 78 78 79 79 79 79 79 79 79 80 80 79
68 64 55 52 52 54 55 56 55 53 57 62 64 64 63 63 66 66 68 68 64 65 67 68 68 71 67 68 69 70 70 70 69 68 70 70 70 70 71 72 73 73 74 75 75 76 76 76 76 76 76 76 76 76 76 76 77 77 77 77 76 76 76 76 75 75 74 75 75 78 76 76 76 76 75 75 76 77 76 76 76 77 78 78 78 78 78 78 79 79 79 80 80 80 80 79 79
63 58 54 52 53 54 57 57 57 60 59 61 63 64 64 63 65 65 67 66 66 66 66 68 70 70 70 70 71 70 69 68 68 69 69 69 69 70 70 71 72 72 73 74 75 76 76 76 76 76 76 76 76 76 76 76 77 77 76 76 77 76 75 75 76 76 75 76 77 76 76 77 77 75 75 77 76 76 76 77 77 78 78 78 78 78 78 79 79 79 79 79 80 80 80 79 78
62 58 55 53 54 57 61 62 61 59 59 62 63 64 64 63 64 65 63 63 64 64 65 67 67 68 69 69 70 70 68 67 68 69 69 69 69 69 69 70 71 72 72 74 74 75 75 76 76 76 76 76 76 76 76 76 76 76 75 76 76 76 77 76 75 77 75 75 75 75 77 76 75 76 76 77 77 78 77 78 78 78 79 78 78 78 78 78 78 78 78 79 79 79 77 77 77
63 61 56 56 58 60 62 62 61 61 62 61 63 65 64 65 66 66 63 63 63 63 63 64 65 66 67 69 69 69 68 67 69 69 69 69 69 69 69 69 70 71 72 73 74 75 75 75 75 76 76 75 75 75 75 75 75 75 75 75 75 75 76 77 74 75 75 75 74 74 75 75 76 75 77 77 77 75 75 77 77 77 77 77 78 77 77 77 77 77 77 78 77 76 76 76 75
62 61 57 57 61 59 60 62 62 63 63 62 64 65 64 65 66 66 64 63 63 63 64 64 65 66 67 68 68 68 68 68 69 69 69 69 69 69 69 69 69 70 72 73 73 74 74 75 75 75 75 75 75 75 75 75 75 75 75 74 74 75 74 75 74 74 75 75 75 75 75 75 75 75 75 75 75 75 75 75 75 75 75 75 77 75 75 74 75 75 75 76 75 75 75 75 75
62 61 61 61 61 59 61 62 63 63 64 63 63 62 62 66 66 65 64 61 61 63 65 66 66 67 67 68 68 68 68 69 69 69 69 69 69 69 69 69 69 70 72 72 73 73 74 74 74 74 75 75 75 74 75 75 75 74 74 74 74 74 74 74 75 74 74 75 75 75 76 75 75 75 75 74 75 75 74 74 74 75 75 75 75 75 74 75 75 74 74 74 74 74 74 74 75
58 60 61 62 61 60 62 63 63 64 63 63 62 63 65 64 63 65 64 62 63 66 67 66 67 68 68 68 67 67 68 68 68 68 68 68 69 69 69 69 69 70 71 71 72 73 73 74 74 74 74 74 74 74 74 75 75 74 74 75 74 74 74 74 74 75 75 75 75 76 76 75 75 74 74 74 74 74 74 74 74 75 75 75 75 75 74 74 74 74 74 74 74 74 74 74 74
60 58 61 61 63 61 62 62 63 63 62 62 64 66 63 63 61 64 64 65 67 68 68 67 68 68 68 67 67 67 68 68 68 68 68 69 69 69 69 68 69 70 71 71 72 72 73 73 73 73 73 73 74 74 74 74 75 74 74 76 76 75 75 75 74 75 75 75 75 75 76 75 75 75 74 74 74 74 74 74 75 74 74 74 74 74 74 74 74 74 74 74 73 73 72 73 72
61 60 61 62 62 62 62 62 62 63 62 64 65 63 63 64 62 64 64 66 68 68 68 68 68 68 67 67 66 67 68 68 69 68 69 69 69 69 69 69 69 69 70 70 71 71 72 73 73 73 73 73 73 73 74 74 74 74 75 75 75 76 75 75 75 75 75 75 76 76 76 75 75 75 74 74 74 73 73 73 73 73 73 73 74 73 73 74 73 73 73 73 73 73 72 71 71
62 61 61 61 61 62 63 63 62 62 63 64 62 61 63 64 65 63 64 66 68 68 67 68 68 67 67 67 66 67 68 68 69 68 68 69 69 69 69 68 68 69 69 70 70 71 72 72 72 72 72 72 73 73 73 74 74 74 74 74 75 76 75 75 75 75 75 75 75 75 75 76 75 74 74 74 73 73 73 73 73 72 72 73 73 72 73 73 72 72 72 71 71 70 70 69 71
62 62 62 61 61 61 62 61 61 63 63 63 60 61 62 65 63 58 64 67 68 67 67 67 67 66 66 66 66 67 68 68 68 68 68 69 69 69 68 68 68 68 69 69 70 70 71 72 72 72 72 73 72 72 73 73 74 74 74 74 74 75 75 76 76 75 75 75 75 75 75 76 75 75 74 74 74 73 73 73 72 72 71 71 72 72 72 72 71 71 70 70 70 71 70 69 70
60 61 59 57 58 59 59 61 61 62 61 63 62 62 64 65 63 60 62 67 68 66 66 66 66 66 66 66 66 67 68 68 68 68 68 68 68 68 68 68 68 68 69 69 69 70 71 71 71 71 71 72 73 72 74 73 73 74 74 74 74 74 75 75 75 75 75 75 75 75 75 75 76 75 74 74 73 73 73 72 72 72 71 71 71 70 70 70 71 70 70 70 71 71 71 70 70
59 58 52 54 55 53 57 59 61 61 61 63 64 60 61 63 62 63 65 67 67 66 66 66 66 66 66 65 65 66 67 68 68 68 68 68 68 69 68 68 68 68 69 69 69 70 70 71 70 71 71 71 72 72 72 73 73 73 73 73 74 74 74 75 75 75 74 74 75 75 75 75 76 75 74 74 75 74 73 73 73 73 71 70 70 69 69 71 71 71 70 70 70 70 69 68 67
56 57 54 51 51 50 56 62 62 61 63 64 63 53 54 61 63 65 67 66 67 67 66 66 66 66 66 65 65 65 67 67 67 67 67 68 68 68 68 68 69 68 68 69 69 69 70 70 71 70 70 70 71 72 72 73 73 73 74 73 74 74 74 74 75 75 75 75 75 74 74 74 75 75 74 74 74 73 73 72 71 70 70 70 71 71 71 71 70 70 69 70 70 70 67 67 66
49 53 54 49 48 47 53 62 61 60 63 64 62 51 53 55 60 65 68 67 66 66 67 66 66 66 66 66 65 65 66 66 67 66 66 67 68 68 67 68 68 68 69 68 68 69 70 70 70 70 71 70 71 72 73 73 73 73 73 73 73 73 73 74 74 74 74 74 74 74 74 74 75 74 74 74 73 73 72 71 70 69 69 71 72 71 71 71 70 69 69 67 67 67 66 67 66
54 45 44 48 48 49 53 59 61 59 64 65 59 52 55 57 59 66 68 67 66 66 67 67 66 66 66 66 65 65 66 65 65 66 66 65 67 66 67 67 68 68 68 68 68 69 69 70 70 69 70 70 70 72 72 73 73 73 73 74 73 73 73 73 73 73 73 74 74 74 74 74 74 74 74 74 73 73 71 71 71 72 73 73 72 71 72 70 69 68 69 68 67 65 66 65 67
48 46 46 46 48 49 48 55 63 63 63 64 59 53 55 58 64 67 68 67 66 66 66 65 65 66 67 67 66 66 67 67 65 64 64 65 65 65 66 66 67 67 67 68 68 68 69 69 70 68 69 69 70 71 72 72 73 72 72 73 73 73 73 73 73 73 73 73 73 73 73 74 74 74 74 73 72 72 71 70 69 70 71 71 70 71 70 71 69 66 68 70 69 67 66 65 66
44 49 46 49 46 47 43 49 58 61 62 61 62 58 57 61 65 66 68 67 65 65 65 64 64 66 66 67 67 67 66 66 65 64 63 64 64 64 65 67 65 67 67 67 68 68 68 68 69 68 68 69 69 71 72 72 72 72 72 72 74 73 72 73 73 73 73 72 72 72 73 73 74 73 73 72 72 71 71 71 70 71 72 72 72 71 70 69 69 68 67 68 68 68 68 67 66
43 45 45 45 46 48 44 44 48 62 62 60 60 60 58 63 64 65 67 67 65 64 64 64 64 65 66 66 67 67 66 67 65 66 65 63 64 64 64 64 64 65 65 66 67 67 67 67 68 68 68 68 69 70 72 71 71 71 71 72 72 73 73 72 72 72 72 72 71 72 73 72 73 73 72 73 72 71 70 70 70 71 72 72 72 71 70 70 69 67 67 68 70 69 68 68 68
47 46 45 45 43 42 40 42 51 60 59 58 59 58 59 62 64 64 67 67 65 65 65 64 64 65 66 66 66 66 66 67 68 67 67 64 63 63 63 63 63 63 64 65 66 65 66 66 66 67 67 67 68 70 71 71 71 71 70 71 71 72 72 73 72 71 71 71 71 71 71 71 71 72 72 72 72 71 70 70 70 71 72 72 72 71 70 69 67 69 70 69 69 69 70 70 70
46 47 46 43 43 42 42 41 44 58 57 57 58 59 59 62 63 64 66 67 66 65 64 63 64 65 65 66 66 67 67 67 68 68 67 66 65 61 62 62 62 62 63 63 64 64 64 64 66 65 66 67 68 69 70 70 70 70 71 70 70 70 71 71 71 71 70 70 70 70 70 69 70 70 71 72 72 72 73 72 72 72 72 73 72 71 70 69 71 72 71 71 69 68 67 68 68
45 45 44 40 41 39 39 39 41 57 54 53 58 58 59 62 63 64 66 66 65 64 64 63 63 64 65 65 67 67 67 70 69 68 67 66 65 64 61 62 63 61 62 62 63 63 63 63 64 64 64 66 67 68 69 69 70 70 69 69 69 69 70 71 70 70 69 69 70 70 69 69 69 69 71 72 73 71 71 70 71 71 71 72 73 73 72 73 70 69 68 68 68 68 68 69 68
39 39 40 38 36 41 39 46 54 59 55 52 58 58 58 61 62 64 64 65 65 65 64 64 63 64 65 66 66 67 67 68 69 68 67 66 64 64 61 61 62 61 61 61 62 62 62 62 63 64 63 65 66 67 69 69 69 70 69 69 69 68 68 70 69 70 69 68 68 68 69 68 68 68 69 71 71 71 71 72 71 72 72 73 72 70 70 69 69 68 69 68 67 68 71 72 71
38 37 36 34 37 35 33 39 59 59 53 51 57 58 58 62 63 63 64 65 65 66 65 64 64 64 64 65 65 65 66 66 67 67 66 65 64 64 61 60 61 61 62 61 61 62 62 64 63 63 63 64 66 68 70 68 69 69 70 71 69 69 68 69 68 68 67 66 65 65 66 67 67 67 67 68 70 71 72 72 72 72 72 73 71 70 69 68 69 69 68 69 70 69 69 69 71
38 35 35 35 34 34 34 37 53 57 59 59 55 50 51 60 61 62 64 65 65 65 65 65 64 64 65 65 66 65 65 66 67 66 65 65 64 64 62 60 60 61 61 60 61 61 61 61 62 62 62 64 66 68 69 69 70 70 70 70 73 69 68 66 66 66 65 66 67 66 64 66 67 67 68 69 71 71 73 73 73 73 72 72 71 70 69 68 68 69 71 72 72 70 69 69 70
33 34 34 33 32 32 33 36 43 46 44 55 52 43 43 52 60 60 63 64 64 64 64 64 64 64 64 65 65 66 66 67 68 67 65 65 64 63 64 61 59 60 60 60 60 60 61 61 61 62 62 64 65 66 69 69 69 68 67 67 67 67 66 65 63 62 62 64 64 67 67 67 67 69 69 69 70 72 73 73 73 73 72 72 71 70 69 69 71 70 70 70 69 70 70 68 64
31 30 32 32 32 31 31 39 46 40 37 45 52 41 38 47 58 60 62 63 63 64 64 64 64 64 64 65 65 66 66 67 69 67 65 65 64 64 63 61 59 59 59 60 59 60 60 60 61 60 61 63 64 66 68 69 68 68 66 65 65 65 64 64 65 63 62 63 66 67 68 69 69 69 69 70 70 72 73 74 74 73 72 71 72 71 69 70 68 67 67 66 66 68 68 67 64
31 34 35 33 31 31 32 40 44 42 47 50 53 46 41 42 45 55 62 62 62 63 63 64 64 64 64 65 65 66 66 66 68 68 66 65 65 64 63 63 59 59 59 59 58 59 59 60 60 61 62 64 64 65 67 68 67 67 66 65 65 64 63 64 64 65 64 68 68 68 68 69 70 71 70 72 71 72 73 73 73 72 71 69 72 71 71 68 66 66 67 66 67 68 66 65 64
26 28 33 35 35 34 36 39 42 42 39 35 47 52 44 44 47 60 62 60 61 61 62 63 64 64 65 65 65 65 66 66 67 69 67 65 65 64 64 63 61 58 58 58 58 58 59 59 60 60 61 64 64 65 66 66 68 67 66 65 66 67 65 64 68 72 71 70 68 67 68 68 70 71 72 72 72 72 74 74 72 71 70 70 75 71 67 65 65 66 66 66 65 65 66 65 64
24 24 29 39 39 40 38 37 37 38 34 33 38 49 41 42 46 60 61 60 59 60 62 62 63 64 65 65 65 66 66 66 67 69 70 66 66 65 64 63 62 58 58 58 57 58 58 58 59 60 60 62 63 65 66 66 66 68 66 66 66 67 69 69 69 68 68 70 68 67 68 68 68 70 71 72 72 72 71 70 69 69 70 75 72 69 67 66 66 65 65 65 65 64 64 64 64
32 32 35 35 38 40 47 42 41 36 33 36 39 47 42 37 44 57 57 58 60 60 61 62 63 64 65 65 66 66 66 66 67 67 69 67 66 66 64 63 62 58 57 57 57 58 57 57 58 59 60 62 63 64 65 64 65 66 65 66 67 66 68 69 69 68 68 70 69 66 66 67 68 68 70 71 70 70 69 73 70 71 75 74 70 67 66 65 65 64 63 64 64 64 63 62 62
31 33 35 35 36 39 39 40 40 33 33 37 37 48 41 36 40 48 59 60 61 60 60 62 62 63 64 65 66 66 66 66 66 67 69 68 66 66 65 63 62 58 56 57 57 57 57 56 57 59 61 63 63 64 64 64 64 65 65 66 66 67 68 68 68 67 67 67 68 68 69 67 66 66 69 69 70 68 71 70 77 73 71 68 67 67 66 66 65 64 63 63 63 64 64 63 62
34 36 38 31 33 35 31 36 31 33 32 35 43 44 43 41 41 43 55 58 60 61 61 62 62 63 63 65 65 66 66 66 66 66 68 69 66 65 65 64 62 58 57 57 57 57 57 56 57 59 61 62 63 63 64 64 64 65 65 65 66 67 68 69 68 67 67 67 67 68 68 68 68 67 67 66 67 67 71 71 74 71 69 69 69 68 67 66 65 63 62 62 62 63 63 63 62
26 24 34 32 31 32 28 33 34 33 34 35 40 42 38 41 41 44 43 49 58 60 61 62 62 63 63 64 65 66 66 66 66 66 67 67 66 65 65 64 62 59 56 56 56 58 57 56 57 58 60 62 63 63 63 63 64 65 66 65 66 68 68 68 68 67 67 68 68 68 66 65 67 65 65 67 66 66 71 74 71 69 69 69 69 68 67 66 65 63 62 62 62 63 63 63 62
26 27 28 28 34 33 28 31 28 30 32 32 37 38 36 34 40 47 47 48 53 59 61 62 63 63 64 64 65 65 66 66 66 66 66 67 67 66 64 64 63 60 56 56 56 58 57 56 57 60 60 62 63 63 63 63 63 64 66 65 66 67 67 69 69 70 70 70 68 67 67 65 66 66 66 67 73 74 73 70 68 68 68 68 68 67 65 65 66 65 65 64 64 63 63 63 62
26 35 33 31 32 38 31 35 33 34 31 32 37 35 40 39 42 48 53 53 54 58 61 63 63 63 64 64 64 65 65 66 66 66 66 66 67 66 65 64 63 60 57 56 56 57 56 56 57 58 60 61 62 64 63 62 63 64 66 66 66 68 70 70 71 73 74 71 69 67 68 68 66 65 66 74 74 72 69 68 67 67 67 66 66 65 65 64 64 64 64 64 64 64 63 63 62
29 32 27 30 34 37 41 45 44 35 32 31 40 37 38 42 41 45 50 51 51 59 61 62 62 63 63 63 64 64 65 65 65 65 66 66 66 66 64 64 63 61 56 56 56 56 57 57 57 58 59 61 62 64 62 63 63 65 66 65 65 67 68 69 69 70 72 73 70 69 68 67 67 67 71 73 70 69 68 67 67 66 66 66 66 65 64 64 65 63 62 63 63 63 64 63 63
29 27 28 36 38 36 35 31 33 33 28 31 38 37 38 36 35 44 44 48 49 60 61 62 62 63 63 63 64 64 64 65 65 65 66 66 66 65 64 64 63 62 56 55 57 56 57 57 58 58 59 61 62 63 63 63 64 65 66 66 66 66 67 68 69 70 70 72 72 73 71 70 67 66 72 70 67 67 68 68 67 66 65 64 64 63 63 63 64 64 63 64 63 63 63 63 65
28 30 36 34 39 33 38 31 28 27 28 30 34 40 42 39 39 43 39 45 47 58 60 61 62 62 63 63 64 64 64 65 65 65 65 65 65 65 65 63 63 62 58 55 56 56 57 57 58 58 59 60 62 63 63 64 65 65 66 67 66 67 67 68 70 71 72 70 69 68 67 68 66 72 72 69 68 66 66 66 67 66 65 64 64 63 64 64 64 64 63 63 63 64 63 63 63
35 30 28 41 36 37 33 31 34 30 27 27 27 33 29 41 40 42 39 44 48 58 60 61 61 62 63 63 64 64 64 64 65 65 65 65 65 65 64 64 63 61 58 55 56 56 56 57 59 59 59 61 63 63 65 65 66 66 66 68 69 69 70 70 71 71 71 70 69 67 69 71 71 72 69 68 66 66 66 66 65 64 64 63 63 63 63 63 64 64 63 62 62 63 63 63 63
26 26 26 29 35 38 31 33 32 32 31 29 28 27 33 35 41 44 41 41 43 54 58 60 61 62 63 63 64 64 64 64 65 65 65 65 65 65 64 64 63 61 58 56 56 56 56 57 58 59 58 60 63 64 65 67 68 68 68 68 69 70 70 71 71 71 70 69 68 70 70 72 72 69 68 67 66 66 66 66 65 65 63 64 64 63 63 63 64 63 63 63 63 63 62 62 64
25 25 24 25 30 33 30 31 32 32 30 28 27 26 32 35 43 45 43 45 45 51 55 58 60 61 62 63 64 64 65 65 65 65 65 65 65 65 64 64 63 61 57 56 56 56 56 57 58 58 60 61 63 64 66 68 69 68 68 69 69 70 71 72 71 70 70 69 67 70 72 71 69 69 67 66 66 66 66 66 65 64 63 63 64 64 63 63 63 63 63 63 63 63 63 62 63